Delta Virtual Airport Information Service

Phoenix Sky Harbor International Airport

ICAO: KPHX Country: United States
Latitude: 33.4343 Longitude: -112.011
Latest Arrival : DAL1058 (2A) (KDTW-KPHX) Latest Departure : SWA1307 (B) (KPHX-KSFO)


WX CaptureLIVE
Data provided by noaa.gov | Fetched at 18:28:50

METAR : KPHX 172151Z VRB03KT 10SM FEW085 FEW190 FEW250 39/18 A2978 RMK AO2 SLP060 CB DSNT N-E AND S-SW AND W-N T03890178

TAF : KPHX 172151Z VRB03KT 10SM FEW085 FEW190 FEW250 39/18 A2978 RMK AO2 SLP060 CB DSNT N-E AND S-SW AND W-N T03890178


Runway Data for KPHX
Data provided by openaviationdata.com

Runway ID Mag Var Hdg Length Elevation Surface ILS Freq ILS Id ILS Slope
07L 12 78° 10287 ft 1135 ft Asphalt 111.5 IPHX 3
07R 12 78° 7791 ft 1135 ft Concrete 110.75 IAHA 3
8 12 78° 11477 ft 1135 ft Concrete 111.75 ISYQ 3
25L 12 258° 7791 ft 1135 ft Concrete 110.75 IRJG 3
25R 12 258° 10287 ft 1135 ft Asphalt -- -- --
26 12 258° 11477 ft 1135 ft Concrete 111.75 ICWJ 3

Phoenix Sky Harbor International Airport, United States
Use only for reference purposes



Not for navigational purposes.